Regional Weather Roundup
Issued by NWS Midland/Odessa, TX

Home | Current Version | Previous Version | Text Only | Print | Product List | Glossary On
Versions: 1 2 3 4 5 6 7 8 9 10 11 12 13 14 15 16 17 18 19 20 21 22 23 24 25 26 27 28 29 30 31 32 33 34 35 36 37 38 39 40 41 42 43 44 45 46 47 48 49 50
000
ASUS44 KMAF 220710
RWRMAF
MIDLAND AREA WEATHER ROUNDUP
NATIONAL WEATHER SERVICE MIDLAND TX
100 AM CST MON DEC 22 2014

...IN SOUTHWEST TEXAS AND SOUTHEAST NEW MEXICO...

CITY           SKY/WX    TMP DP  RH WIND       PRES   REMARKS
ALPINE         MOCLDY    57  24  27 W13G31    29.93F
ANDREWS        FAIR      53  27  36 W13G18    29.72F
ARTESIA        CLOUDY    54  28  37 W17G26    29.76F
BIG SPRING     CLOUDY    55  27  33 SW15      29.71F
CARLSBAD       CLOUDY    61  27  27 W23G31    29.74F
DRYDEN           N/A     47  46  97 NE6       29.79R
FORT STOCKTON  MOCLDY    56  25  30 SW14      29.78F
GUAD PASS      NOT AVBL
HOBBS          MOCLDY    54  27  35 W21       29.73F
MARFA          CLOUDY    52  23  32 W5        29.96S
MIDLAND AIRPK  CLOUDY    57  27  31 W14       29.72F
MIDLAND INTL   CLOUDY    56  28  34 W13       29.72S
ODESSA         CLOUDY    54  26  34 W10       29.74S
PECOS          CLOUDY    61  28  28 W23G29    29.76F
PRESIDIO       FAIR      53  28  38 E3        29.90S
SEMINOLE       MOCLDY    52  28  39 W12       29.72F
SNYDER         PTCLDY    56  29  36 SW16      29.63F
WINK           CLOUDY    57  25  29 W8        29.74S
$$
...OTHER STATIONS IN TEXAS...

CITY           SKY/WX    TMP DP  RH WIND       PRES   REMARKS
ABILENE        FAIR      49  43  80 SW18G32   29.64F
AMARILLO       CLEAR     47  28  47 W17       29.60S
AUSTIN         CLOUDY    56  53  90 S12       29.81F
BROWNSVILLE    CLOUDY    63  61  93 S5        29.87F FOG
CORPUS CHRISTI CLOUDY    57  55  93 SW6       29.83F FOG
DALLAS FTW     MOCLDY    53  49  86 S22G32    29.67F
DEL RIO        MOCLDY    50  48  93 E10       29.78F
EL PASO        CLOUDY    56  28  34 W12       29.90F
HOUSTON INT    CLOUDY    56  54  93 SE5       29.86F
LUBBOCK        MOCLDY    54  30  40 W21G30    29.61S
SAN ANGELO     PTCLDY    50  46  86 SW9       29.73F
SAN ANTONIO    CLOUDY    56  54  93 SW6       29.85F
WACO           CLOUDY    55  50  83 S20G26    29.75F
WICHITA FALLS  NOT AVBL
$$
...OTHER LOCATIONS IN NEW MEXICO...

CITY           SKY/WX    TMP DP  RH WIND       PRES   REMARKS
ALAMAGORDO     PTCLDY    46  28  49 N8        29.90F
ALBUQUERQUE    PTCLDY    34  28  79 E10       29.94R WCI  26
CANNON AFB     PTCLDY    45  28  52 W13       29.69F WCI  39
CLOVIS         PTCLDY    48  28  46 W21       29.67S
HOLLOMAN AFB   PTCLDY    35  29  78 N9        29.88F WCI  28
ROSWELL        CLOUDY    46  27  47 SE8       29.75F
RUIDOSO        PTCLDY    46  27  46 NW26G48   29.87F WCI  38
SANTA FE       PTCLDY    42  29  59 W22G30    29.83F WCI  33
TRUTH OR CONSE PTCLDY    51  30  44 NW9       29.94R
TUCUMCARI      PTCLDY    44  27  51 W10       29.65F WCI  39
$$


USA.gov is the U.S. government's official web portal to all federal, state and local government web resources and services.